Tracking 25686 objects as of 25-May-2022
HD Live streaming from Space Station
objects crossing your sky now

SL-12 R/B(2)

Track SL-12 R/B(2) now!


NORAD ID: 22966
Int'l Code: 1994-002D
Perigee: 35,821.0 km
Apogee: 36,220.4 km
Inclination: 14.8 °
Period: 1,447.7 minutes
Semi major axis: 42391 km
RCS: 2.5179 m2 (large)
Launch date: January 20, 1994
Source: Commonwealth of Independent States (former USSR) (CIS)
Launch site: TYURATAM MISSILE AND SPACE COMPLEX (TTMTR)

Note: This is a ROCKET BODY
aabbcc
Your satellite tracking list
Your tracking list is empty




NASA's NSSDC Master Catalog

Two Line Element Set (TLE):
1 22966U 94002D   22144.70174587  .00000051  00000-0  00000-0 0  9998
2 22966  14.8202 355.3011 0047114 106.3222  71.3362  0.99467631102319
Source of the keplerian elements: AFSPC